Location: Kenockee Observatory
(43.0173°N, 82.7297°W)
Time: 04:38:51
(UTC-04:00)

Daily predictions for brighter satellites

Satellite Brightness Start Highest point End
(mag) Time Altitude Azimuth Time Altitude Azimuth Time Altitude Azimuth
Lacrosse 5 rocket 3.5 00:08:17 14° NE 00:08:17 14° NE 00:08:55 10° NE
Okean 1-7 Rocket 3.7 00:02:33 10° NNW 00:07:02 65° W 00:07:07 65° WSW
Cosmos 1535 Rocket 4.4 00:06:09 54° SSE 00:07:41 78° E 00:14:05 10° N
Meteor 1-11 Rocket 3.7 00:12:11 62° S 00:13:16 86° E 00:19:04 10° N
USA 229 DEB 4.4 00:08:27 10° NW 00:15:02 42° WSW 00:16:52 36° SSW
USA 229 4.4 00:08:33 10° NW 00:15:09 42° WSW 00:16:58 36° SSW
Lacrosse 5 2.2 00:17:35 53° ENE 00:17:35 53° ENE 00:21:38 10° NE
Iridium 4 Rocket 3.7 00:11:08 10° N 00:17:04 82° E 00:17:57 66° SSE
Cosmos 1503 Rocket 4.0 00:16:10 10° NNW 00:21:25 70° ENE 00:21:42 68° E
Cosmos 1544 Rocket 4.4 00:23:18 40° NE 00:23:18 40° NE 00:26:27 10° NNE
Gbstr 26 Del rocket 3.4 00:18:48 10° WNW 00:22:46 59° WNW 00:22:46 59° WNW
ASTEX 1 4.2 00:19:06 10° N 00:23:49 46° WNW 00:24:52 40° WSW
CZ-4B R/B 3.9 00:31:00 16° NNE 00:31:00 16° NNE 00:32:00 10° NNE
Meteor 2-15 Rocket 4.3 00:26:27 10° N 00:32:36 76° E 00:33:22 66° SE
NOSS 3-1 (A) 4.0 00:26:08 10° NW 00:33:45 87° NE 00:36:14 50° SE
Cosmos 1400 Rocket 3.6 00:35:35 52° NW 00:35:35 52° NW 00:39:01 10° N
Cosmos 1536 3.7 00:36:20 49° NNW 00:36:20 49° NNW 00:39:24 10° N
Meteor 2-14 Rocket 4.3 00:36:47 66° SSW 00:37:43 86° W 00:43:54 10° N
Meteor 2-15 4.3 00:33:46 10° N 00:39:55 82° W 00:40:42 69° SSW
Cosmos 2369 Rocket 2.0 00:42:13 78° ESE 00:42:13 78° ESE 00:47:52 10° NNE
Meteor 1-23 Rocket 4.0 00:37:49 10° NNW 00:43:24 80° W 00:43:41 77° SW
H-2A R/B 3.6 00:44:49 10° NNE 00:48:06 40° NE 00:48:06 40° NE
CZ-2C R/B 3.9 00:48:08 10° NE 00:51:53 27° E 00:51:53 27° E
Cosmos 1354 Rocket 4.3 00:49:20 10° NNW 00:54:16 58° W 00:54:16 58° W
ATLAS 2AS CENTAUR R/B 3.5 00:47:00 10° NNW 00:54:59 54° NE 00:58:44 31° ESE
H-2A R/B 4.3 00:53:53 13° WSW 00:55:19 14° W 00:58:08 10° WNW
MOS 1-B Rocket 4.3 00:55:20 52° ESE 00:56:25 60° ENE 01:03:09 10° N
Cosmos 1633 4.4 00:59:11 29° NW 00:59:11 29° NW 01:01:34 10° N
Cosmos 1892 Rocket 4.5 00:57:48 10° NNW 01:01:12 43° WNW 01:01:12 43° WNW
NOSS 3-1 (C) 4.2 00:56:25 10° NW 01:03:50 55° WSW 01:05:09 50° SSW
Cosmos 1818 4.0 01:06:46 51° ENE 01:06:46 51° ENE 01:11:11 10° NE
USA 234 3.9 01:01:09 10° NE 01:07:29 54° NNW 01:13:47 10° WSW
Cosmos 2061 Rocket 4.4 01:08:13 49° ESE 01:08:42 50° E 01:14:52 10° NNE
Cosmos 1459 Rocket 4.2 01:09:16 51° E 01:09:30 51° E 01:15:21 10° NNE
Meteor 1-5 Rocket 4.1 01:12:17 70° W 01:12:18 70° WNW 01:17:38 10° N
Cosmos 1605 Rocket 4.2 01:12:59 54° WSW 01:14:03 62° W 01:20:26 10° N
Cosmos 1943 Rocket 2.4 01:18:38 59° E 01:18:38 59° E 01:23:37 10° NNE
Cosmos 1992 Rocket 4.0 01:18:34 76° NNW 01:18:34 76° NNW 01:23:29 10° NNE
Cosmos 1802 Rocket 4.3 01:19:15 52° ESE 01:19:36 53° E 01:25:40 10° NNE
Cosmos 1602 Rocket 4.3 01:17:48 10° N 01:21:15 53° N 01:21:15 53° N
Cosmos 1626 Rocket 4.3 01:22:33 10° N 01:26:00 52° NNW 01:26:00 52° NNW
SL-8 R/B 4.5 01:24:36 10° WNW 01:28:03 46° NW 01:28:03 46° NW
ISS -0.4 01:27:26 10° NW 01:29:45 18° N 01:30:09 17° NNE
ALOS 2 3.8 01:31:15 35° WNW 01:31:15 35° WNW 01:34:17 10° NNW
Cosmos 2173 Rocket 3.9 01:29:53 70° SE 01:30:19 73° E 01:36:41 10° NNE
Cosmos 1455 Rocket 4.3 01:31:06 36° NW 01:31:06 36° NW 01:34:29 10° N
Lacrosse 5 rocket 3.5 01:43:57 19° NW 01:44:44 20° NNW 01:47:35 10° NNE
Cosmos 1725 Rocket 4.4 01:47:31 47° ESE 01:48:03 49° E 01:53:57 10° NNE
Meteor 1-12 Rocket 4.4 01:48:00 61° W 01:48:10 61° WNW 01:53:46 10° N
Lacrosse 5 3.6 01:56:43 16° W 01:59:54 30° NNW 02:04:25 10° NE
Tsikada Rocket 4.2 01:53:48 10° N 02:00:04 62° E 02:01:06 54° ESE
SeaSat 1 3.5 02:01:13 34° E 02:02:23 39° NE 02:06:57 10° NNW
Helios 1A Rocket 4.1 02:00:02 10° N 02:03:04 39° NNW 02:03:04 39° NNW
Cosmos 1606 Rocket 4.4 02:07:10 47° NE 02:07:10 47° NE 02:10:25 10° NNE
Cosmos 44 Rocket 3.8 02:05:51 10° NW 02:09:52 53° WNW 02:09:52 53° WNW
CZ-2C R/B 3.3 02:20:59 54° WNW 02:20:59 54° WNW 02:25:08 10° NNW
Meteor 1-21 4.0 02:14:51 10° N 02:20:30 90° E 02:20:40 85° SSE
Cosmos 968 Rocket 4.3 02:18:59 10° NNW 02:22:58 40° WNW 02:22:58 40° WNW
Cosmos 1570 Rocket 4.1 02:24:57 67° E 02:24:57 67° E 02:30:08 10° NNE
SL-08 R/B 4.5 02:24:07 64° SW 02:24:56 71° W 02:31:21 10° N
NOSS 3-3 (A) 3.8 02:24:51 71° SSW 02:25:35 83° SE 02:32:20 10° NE
NOSS 3-3 (C) 3.8 02:24:57 71° SSW 02:25:40 83° ESE 02:32:26 10° NE
Cosmos 2369 Rocket 4.3 02:23:58 13° W 02:26:53 19° NW 02:30:50 10° N
Cosmos 2058 Rocket 3.6 02:27:44 58° NE 02:27:44 58° NE 02:31:26 10° NNE
Cosmos 1743 4.2 02:28:43 35° NNW 02:28:43 35° NNW 02:31:12 10° N
PSLV R/B 4.5 02:23:23 10° NNE 02:27:12 44° ENE 02:27:12 44° ENE
Cosmos 1340 4.0 02:28:23 10° N 02:30:54 39° N 02:30:54 39° N
CZ-2C R/B 3.4 02:28:10 10° N 02:32:59 38° WNW 02:33:24 38° W
Cosmos 1953 Rocket 4.4 02:29:15 10° NNW 02:32:25 45° NW 02:32:25 45° NW
Meteor 2-9 Rocket 4.3 02:33:46 64° SE 02:34:23 69° E 02:40:10 10° NNE
Cosmos 2219 3.5 02:31:54 10° NNW 02:36:49 51° W 02:36:49 51° W
UNK 4.2 02:27:53 10° WSW 02:38:40 55° NNW 02:42:02 10° NE
Cosmos 2227 Rocket 3.0 02:34:43 10° NNW 02:40:13 47° ENE 02:42:57 27° ESE
Meteor 1-15 Rocket 4.3 02:40:55 64° SE 02:41:38 72° E 02:47:31 10° NNE
Cosmos 1726 Rocket 4.2 02:43:02 49° NW 02:43:02 49° NW 02:46:31 10° N
ATLAS 2AS CENTAUR R/B 3.4 02:38:28 10° NW 02:45:51 41° WSW 02:46:07 41° WSW
Cosmos 1842 4.3 02:41:59 10° NNW 02:44:44 42° NNW 02:44:44 42° NNW
Cosmos 44 3.4 02:41:19 10° NW 02:45:56 67° WNW 02:45:56 67° WNW
ATLAS CENTAUR R/B 3.3 02:48:10 25° ESE 02:48:10 25° ESE 02:52:06 10° ENE
Cosmos 1656 Rocket 4.2 02:51:46 44° W 02:52:42 48° WNW 02:58:09 10° NNE
Cosmos 2233 Rocket 3.8 02:52:10 64° SSW 02:53:12 85° W 02:59:22 10° N
Cosmos 1666 3.8 02:55:39 40° NNW 02:55:39 40° NNW 02:58:18 10° N
SL-08 R/B 4.1 02:54:19 38° ESE 02:55:25 46° ENE 02:59:52 10° N
Cosmos 2278 3.9 02:58:52 54° SE 02:59:38 59° ESE 03:05:12 10° NNE
Cosmos 2369 4.0 03:00:27 49° SE 03:01:17 53° ESE 03:06:48 10° NNE
Cosmos 2297 Rocket 3.0 02:56:03 10° NNW 03:01:33 49° ENE 03:05:19 20° SE
Cosmos 1943 Rocket 3.9 03:00:09 18° W 03:02:18 22° NW 03:06:37 10° N
Meteor 2-17 Rocket 4.4 03:02:00 60° SSW 03:03:08 77° W 03:09:17 10° N
NPP 4.0 02:58:59 10° NNE 03:04:18 55° E 03:05:21 47° SE
ISS -1.2 03:08:08 24° ENE 03:08:08 24° ENE 03:09:53 10° E
Cosmos 2208 Rocket 4.3 03:10:10 50° W 03:10:45 53° WNW 03:15:55 10° NNE
BREEZE-M DEB (TANK) 3.7 03:12:27 56° S 03:13:10 62° SSE 03:16:28 10° ENE
Cosmos 405 Rocket 3.4 03:10:28 10° N 03:14:27 51° ENE 03:14:45 50° E
CZ-3A R/B 4.5 03:11:25 32° SSW 03:17:42 51° SE 03:23:11 10° ENE
Landsat 4 4.1 03:18:43 61° NNW 03:18:43 61° NNW 03:21:58 10° NNW
CBERS-1 4.3 03:13:22 10° NNE 03:18:27 62° E 03:19:33 49° SSE
BREEZE-M DEB (TANK) 3.2 03:19:22 61° WNW 03:19:48 69° NNW 03:23:16 10° ENE
Cosmos 2298 Rocket 4.0 03:15:09 10° NNW 03:20:29 84° ENE 03:22:02 48° SSE
Cosmos 220 Rocket 3.9 03:19:11 10° NNW 03:23:33 80° ENE 03:23:51 73° ESE
Cosmos 2228 4.0 03:28:59 34° WNW 03:28:59 34° WNW 03:32:41 10° N
Cosmos 1072 Rocket 4.5 03:27:34 45° S 03:29:45 87° W 03:36:12 10° N
Meteor 1-24 Rocket 4.4 03:26:41 10° N 03:32:16 52° ENE 03:36:36 18° SSE
ERS-2 2.7 03:29:58 10° NNE 03:33:36 48° E 03:33:47 48° ESE
IRAS Rocket 4.3 03:30:44 10° NNE 03:36:23 79° ESE 03:38:16 44° S
Cosmos 1891 Rocket 4.4 03:35:35 39° S 03:38:00 78° E 03:44:08 10° N
USA 161 3.0 03:40:01 34° ENE 03:40:01 34° ENE 03:42:31 10° N
SeaSat 1 3.6 03:40:59 28° W 03:40:59 28° W 03:44:17 10° NW
NOSS 2-1 (D) 3.2 03:39:46 78° SSW 03:40:02 87° SE 03:44:31 10° NE
Cosmos 858 Rocket 4.4 03:35:10 10° NNW 03:40:26 82° WSW 03:42:19 41° S
NOSS 2-1 (C) 3.2 03:41:07 76° SSW 03:41:26 88° ESE 03:45:55 10° NE
Cosmos 468 Rocket 3.9 03:41:26 52° SSW 03:42:45 90° WNW 03:47:56 10° NNE
Abrixas 3.8 03:44:06 36° NNW 03:44:40 40° NNE 03:47:35 10° E
Cosmos 1656 3.8 03:43:30 40° S 03:45:31 68° ESE 03:51:09 10° NNE
Okean O Rocket 4.4 03:45:16 10° ENE 03:46:36 11° E 03:47:57 10° ESE
BREEZE-M DEB (TANK) 3.3 03:44:05 10° WNW 03:52:03 42° WSW 03:52:03 42° WSW
Cosmos 2034 Rocket 3.9 03:50:04 36° S 03:52:49 85° W 03:59:03 10° N
Cosmos 1953 4.3 03:51:08 14° SE 03:53:36 24° E 03:56:54 10° NE
Cosmos 1707 2.7 03:51:37 10° NNW 03:55:31 62° W 03:55:42 61° WSW
CZ-2D R/B 3.1 03:50:28 10° NNE 03:55:41 43° E 03:59:09 19° SSE
IRS-1C 4.1 03:50:50 10° N 03:56:11 76° WNW 03:58:08 40° SSW
NOSS 2-1 (E) 3.4 03:55:46 55° WSW 03:56:32 72° NW 04:01:10 10° NNE
Cosmos 2150 Rocket 4.1 03:53:18 10° NNW 03:58:21 52° WSW 03:59:35 42° SSW
Cosmos 1408 Rocket 4.2 03:55:11 10° N 03:59:29 53° E 04:02:31 19° SSE
Nadezhda 4 Rocket 4.0 03:54:38 10° N 04:00:51 82° E 04:05:36 18° S
SL-16 R/B 2.7 03:56:25 10° SSE 04:02:32 73° ENE 04:08:42 10° N
Cosmos 1766 Rocket 4.2 03:58:43 10° N 04:03:03 53° E 04:06:21 17° SSE
AQUA 4.2 03:58:39 10° N 04:03:16 50° WNW 04:04:35 38° WSW
Cosmos 1812 Rocket 4.4 04:03:04 33° W 04:03:41 34° WNW 04:07:47 10° N
Cosmos 1898 Rocket 3.9 04:01:13 10° NNW 04:06:16 44° WSW 04:07:33 37° SW
NOSS 3-4 (A) 3.7 04:02:12 10° NW 04:09:09 72° WSW 04:16:31 10° SSE
NOSS 3-4 (C) 3.7 04:02:18 10° NW 04:09:18 72° WSW 04:16:42 10° SSE
Cosmos 1697 Rocket 2.7 04:08:37 32° SSW 04:11:20 82° ESE 04:17:02 10° NNE
Cosmos 1125 Rocket 4.5 04:07:25 10° N 04:12:28 47° ENE 04:17:28 10° SE
Cosmos 2082 4.3 04:08:51 10° NW 04:13:50 33° WSW 04:14:49 31° SW
Cosmos 841 Rocket 3.6 04:11:30 30° S 04:14:09 74° ESE 04:19:26 10° NNE
Geosat 4.3 04:11:29 10° NNE 04:16:25 56° WNW 04:18:39 31° WSW
Cosmos 1937 Rocket 3.7 04:12:38 10° NNW 04:17:36 48° WSW 04:19:45 30° SSW
GEOS 3 Rocket 3.7 04:14:16 10° SE 04:19:28 80° NE 04:24:40 10° NW
Cosmos 1980 Rocket 2.6 04:16:23 23° S 04:19:50 59° ESE 04:25:24 10° NNE
Cosmos 1763 Rocket 3.4 04:17:33 31° SSW 04:20:07 87° WNW 04:25:21 10° NNE
NOSS 7 (D) 4.3 04:19:26 53° SW 04:20:10 86° WNW 04:23:36 10° NE
Cosmos 2227 Rocket 3.2 04:19:20 10° NW 04:23:57 26° WSW 04:24:42 25° WSW
Milstar 3 Cent rocket 3.6 04:25:01 19° S 04:25:56 20° S 04:30:52 10° SE
ATLAS CENTAUR R/B 2.3 04:24:30 27° WSW 04:26:55 49° NW 04:31:46 10° NNE
RESURS DK-1 4.4 04:23:28 10° N 04:27:10 31° NE 04:30:51 10° ESE
EP 1 3.9 04:31:23 71° S 04:31:35 82° SE 04:34:13 10° NE
Cosmos 2322 Rocket 3.8 04:27:08 10° SSE 04:31:52 29° ESE 04:36:37 10° NE
ARIANE 5 R/B 2.5 04:26:46 10° N 04:31:53 69° WNW 04:34:58 25° SSW
CZ-2D R/B 4.4 04:29:02 10° NNE 04:33:16 49° E 04:37:01 13° S
Resurs 1-4 Rocket 2.0 04:29:43 10° NNE 04:35:01 85° WNW 04:38:40 21° SSW
ADEOS 4.2 04:30:22 10° N 04:35:15 41° WNW 04:37:54 24° WSW
BREEZE-M DEB (TANK) 2.7 04:36:01 14° WNW 04:38:10 52° N 04:42:13 10° E
Cosmos 1634 Rocket 4.0 04:33:42 14° S 04:39:05 85° E 04:45:26 10° N
Cosmos 1461 3.9 04:36:21 10° NNW 04:40:24 48° NE 04:44:17 10° SE
ISS -3.0 04:41:16 17° WNW 04:43:22 40° SW 04:46:27 10° SSE
Cosmos 2297 Rocket 3.2 04:40:45 10° NW 04:45:14 25° WSW 04:47:02 21° SW
Cosmos 540 Rocket 4.0 04:42:53 13° S 04:47:28 56° ESE 04:52:31 10° NNE
UNK 4.0 04:44:43 18° SSW 04:47:58 48° W 04:52:31 10° NNW
Cosmos 1470 4.1 04:47:10 10° SSE 04:50:50 38° E 04:54:33 10° NNE
Cosmos 1092 Rocket 4.1 04:44:43 10° NNW 04:50:52 57° W 04:57:01 10° SSW
PSLV R/B 4.4 04:50:32 10° NNE 04:54:19 54° E 04:58:00 10° S
Cosmos 1378 4.2 04:52:05 10° NNW 04:55:23 29° W 04:56:49 22° SW
Thor Agena Rocket 4.4 04:52:12 10° SE 04:57:03 51° ENE 05:01:57 10° N
Cosmos 1627 Rocket 4.5 04:51:07 10° N 04:57:27 80° W 05:03:39 10° S
IRS-1D 4.1 04:55:21 10° N 04:59:58 41° WNW 05:03:24 17° SW
CZ-4B R/B 3.9 04:59:05 10° NNE 05:02:50 41° E 05:06:24 10° S
Cosmos 2151 4.5 04:58:48 10° N 05:02:53 39° ENE 05:06:55 10° SSE
Cosmos 2360 4.2 04:58:38 15° SSW 05:03:30 89° WNW 05:09:16 10° NNE
SL-16 R/B 2.9 04:59:39 10° S 05:05:05 51° ESE 05:10:34 10° NE
CZ-2C R/B 3.8 05:00:37 10° SSE 05:05:19 88° ENE 05:09:58 10° NNW
Lacrosse 5 rocket 4.1 05:04:06 10° NNW 05:05:55 13° NNE 05:07:44 10° NE
ERS-2 4.4 05:05:12 10° NW 05:06:59 13° WNW 05:08:38 10° W
Cosmos 1500 Rocket 3.5 05:06:14 10° N 05:10:40 80° W 05:15:00 10° S
UNKNOWN OBJECT B 3.3 05:08:43 10° N 05:12:26 41° WNW 05:15:21 15° SW
GPS 2-04 Rocket1 3.8 05:11:33 16° SW 05:13:40 25° S 05:16:52 10° SE
Cosmos 1743 Rocket 3.8 05:11:34 10° NNW 05:15:45 47° W 05:19:55 10° SSW
Cosmos 2263 Rocket 3.4 05:13:12 10° NNW 05:18:35 46° ENE 05:23:54 10° SE
Abrixas 2.9 05:17:47 10° WNW 05:20:41 41° SSW 05:23:36 10° SE
Okean O Rocket 1.6 05:19:04 10° N 05:23:27 70° WNW 05:27:50 10° SSW
SL-24 R/B - RUBIN 2 4.4 05:18:41 10° SSW 05:24:24 83° ESE 05:30:51 10° NE
PAYLOAD B 4.3 05:18:54 10° NNE 05:24:33 90° WNW 05:30:09 10° SSW
CZ-4B R/B 3.3 05:19:08 10° NNE 05:24:43 88° ESE 05:30:09 10° SSW
Cosmos 1758 4.4 05:22:23 13° SW 05:25:23 29° WNW 05:28:55 10° NNW
Lacrosse 5 4.4 05:24:58 10° NNW 05:28:57 22° NNE 05:32:55 10° ENE
Cosmos 1953 3.6 05:26:54 12° SW 05:29:58 25° WNW 05:33:23 10° NNW
Cosmos 1805 4.4 05:27:09 12° SW 05:30:12 27° WNW 05:33:34 10° NNW
GRACE-1 4.5 05:28:42 10° SSE 05:31:32 63° E 05:34:24 10° N
GRACE-2 4.4 05:29:07 10° S 05:31:57 63° E 05:34:50 10° N
USA 81 4.3 05:27:09 10° SSW 05:32:16 50° W 05:37:25 10° N
Cosmos 2279 Rocket 4.1 05:27:05 10° SSW 05:33:16 64° W 05:39:30 10° N
Cosmos-2242 4.3 05:29:54 11° SW 05:33:18 25° WNW 05:36:52 10° NNW
Cosmos 1328 4.0 05:29:40 10° N 05:33:44 79° E 05:37:46 10° S
Cosmos 1733 3.1 05:30:08 10° S 05:33:55 79° W 05:37:44 10° N
Cosmos 2221 3.3 05:30:03 10° S 05:34:12 55° E 05:38:26 10° NNE
CZ-2D R/B 3.3 05:30:59 10° N 05:35:31 27° WNW 05:40:00 10° WSW
ARGOS Delta rocket 4.0 05:34:51 10° N 05:39:59 74° WNW 05:44:48 10° SSW
Cosmos 372 Rocket 4.2 05:37:17 10° NNW 05:42:09 46° WSW 05:46:59 10° S
IRS-1C Rocket 4.5 05:37:30 10° N 05:42:34 48° WNW 05:47:35 10° SW
ADEOS II 2.9 05:39:08 10° NNE 05:44:18 53° E 05:49:25 10° S
MOZ.5/SAFIR/RUBIN 5/SL-8 4.2 05:40:26 10° S 05:44:53 42° W 05:49:20 10° NNW
SL-16 R/B 3.9 05:42:41 10° SW 05:46:45 18° W 05:50:50 10° NW
Cosmos 1544 4.3 05:44:27 10° SW 05:47:33 25° WNW 05:50:39 10° NNW
